| time (UTC) | temp F | wind direction | speed MPH | gust MPH | rain 1hr in | rain 24hr in | rain mn in | humidity % | barometer mb |
| 20260505124601 | 55 | 253 | 0.0 | 2.0 | 0.00 | 0.00 | 0.00 | 92 | 976.0 |
| 20260505124101 | 54 | 253 | 0.0 | 2.0 | 0.00 | 0.00 | 0.00 | 93 | 976.0 |
| 20260505123058 | 52 | 147 | 0.0 | 1.0 | 0.00 | 0.00 | 0.00 | 92 | 975.9 |
| 20260505122556 | 52 | 147 | 0.0 | 1.0 | 0.00 | 0.00 | 0.00 | 92 | 976.0 |
| 20260505121549 | 51 | 226 | 0.0 | 1.0 | 0.00 | 0.00 | 0.00 | 92 | 976.1 |
| 20260505121043 | 51 | 226 | 0.0 | 2.0 | 0.00 | 0.00 | 0.00 | 93 | 975.9 |
| 20260505120537 | 51 | 221 | 0.0 | 2.0 | 0.00 | 0.00 | 0.00 | 92 | 975.6 |
| 20260505120030 | 51 | 158 | 0.0 | 2.0 | 0.00 | 0.00 | 0.00 | 93 | 975.6 |
| 20260505115019 | 50 | 228 | 0.0 | 1.0 | 0.00 | 0.00 | 0.00 | 93 | 975.4 |
| 20260505114513 | 50 | 228 | 0.0 | 1.0 | 0.00 | 0.00 | 0.00 | 93 | 975.3 |
| 20260505113501 | 49 | 227 | 0.0 | 2.0 | 0.00 | 0.00 | 0.00 | 93 | 975.2 |
| 20260505111943 | 49 | 275 | 0.0 | 3.0 | 0.00 | 0.00 | 0.00 | 93 | 975.0 |
| 20260505110425 | 49 | 263 | 0.0 | 1.0 | 0.00 | 0.00 | 0.00 | 93 | 975.0 |
| 20260505101830 | 48 | 161 | 0.0 | 0.0 | 0.00 | 0.00 | 0.00 | 94 | 974.2 |
| 20260505100819 | 48 | 161 | 0.0 | 0.0 | 0.00 | 0.00 | 0.00 | 94 | 974.1 |
| 20260505100312 | 48 | 161 | 0.0 | 0.0 | 0.00 | 0.00 | 0.00 | 94 | 974.1 |
| 20260505095807 | 47 | 161 | 0.0 | 0.0 | 0.00 | 0.00 | 0.00 | 94 | 974.1 |
| 20260505095304 | 48 | 161 | 0.0 | 0.0 | 0.00 | 0.00 | 0.00 | 93 | 974.0 |
| 20260505094755 | 48 | 161 | 0.0 | 0.0 | 0.00 | 0.00 | 0.00 | 94 | 974.2 |
| 20260505094249 | 48 | 161 | 0.0 | 0.0 | 0.00 | 0.00 | 0.00 | 94 | 974.1 |
| 20260505093743 | 48 | 161 | 0.0 | 0.0 | 0.00 | 0.00 | 0.00 | 94 | 974.1 |
| 20260505092234 | 48 | 161 | 0.0 | 0.0 | 0.00 | 0.00 | 0.00 | 94 | 974.0 |
| 20260505091234 | 48 | 161 | 0.0 | 0.0 | 0.00 | 0.00 | 0.00 | 94 | 974.0 |
| 20260505090230 | 48 | 161 | 0.0 | 0.0 | 0.00 | 0.00 | 0.00 | 93 | 974.0 |
| 20260505085229 | 48 | 161 | 0.0 | 0.0 | 0.00 | 0.00 | 0.00 | 93 | 974.1 |
| 20260505084728 | 48 | 161 | 0.0 | 1.0 | 0.00 | 0.00 | 0.00 | 93 | 974.0 |
| 20260505084228 | 48 | 161 | 0.0 | 1.0 | 0.00 | 0.00 | 0.00 | 94 | 974.1 |
| 20260505083725 | 48 | 259 | 0.0 | 1.0 | 0.00 | 0.00 | 0.00 | 93 | 973.9 |
| 20260505083222 | 47 | 259 | 0.0 | 1.0 | 0.00 | 0.00 | 0.00 | 93 | 974.0 |
| 20260505082720 | 48 | 259 | 0.0 | 1.0 | 0.00 | 0.00 | 0.00 | 93 | 973.9 |
| 20260505082218 | 48 | 259 | 0.0 | 1.0 | 0.00 | 0.00 | 0.00 | 93 | 973.9 |
| 20260505081715 | 48 | 259 | 0.0 | 0.0 | 0.00 | 0.00 | 0.00 | 93 | 973.9 |
| 20260505081215 | 48 | 259 | 0.0 | 2.0 | 0.00 | 0.00 | 0.00 | 93 | 974.1 |
| 20260505080715 | 48 | 259 | 0.0 | 2.0 | 0.00 | 0.00 | 0.00 | 93 | 974.2 |
| 20260505080213 | 48 | 259 | 0.0 | 1.0 | 0.00 | 0.00 | 0.00 | 93 | 974.2 |
| 20260505075215 | 48 | 259 | 0.0 | 1.0 | 0.00 | 0.00 | 0.00 | 93 | 974.4 |
| 20260505074708 | 49 | 225 | 0.0 | 2.0 | 0.00 | 0.00 | 0.00 | 93 | 974.5 |
| 20260505074200 | 49 | 221 | 0.0 | 2.0 | 0.00 | 0.00 | 0.00 | 93 | 974.5 |
| 20260505073159 | 49 | 127 | 0.0 | 2.0 | 0.00 | 0.00 | 0.00 | 93 | 974.6 |
| 20260505072658 | 49 | 251 | 0.0 | 2.0 | 0.00 | 0.00 | 0.00 | 93 | 974.5 |
| 20260505072156 | 49 | 260 | 0.0 | 2.0 | 0.00 | 0.00 | 0.00 | 93 | 974.7 |
| 20260505071656 | 49 | 214 | 0.0 | 2.0 | 0.00 | 0.00 | 0.00 | 93 | 974.6 |
| 20260505071155 | 49 | 268 | 0.0 | 2.0 | 0.00 | 0.00 | 0.00 | 93 | 974.7 |
| 20260505070657 | 49 | 240 | 0.0 | 2.0 | 0.00 | 0.00 | 0.00 | 93 | 974.7 |
| 20260505070155 | 48 | 204 | 0.0 | 2.0 | 0.00 | 0.00 | 0.00 | 93 | 974.8 |
| 20260505065654 | 48 | 245 | 0.0 | 2.0 | 0.00 | 0.00 | 0.00 | 93 | 974.7 |
| 20260505065155 | 49 | 245 | 0.0 | 2.0 | 0.00 | 0.00 | 0.00 | 93 | 974.8 |
| 20260505064151 | 49 | 264 | 0.0 | 0.0 | 0.00 | 0.00 | 0.00 | 93 | 974.9 |
| 20260505063145 | 49 | 264 | 0.0 | 1.0 | 0.00 | 0.00 | 0.00 | 92 | 974.9 |
| 20260505062641 | 49 | 264 | 0.0 | 1.0 | 0.00 | 0.00 | 0.00 | 92 | 974.9 |
| 20260505062142 | 49 | 197 | 0.0 | 1.0 | 0.00 | 0.00 | 0.00 | 92 | 975.1 |
| 20260505061643 | 49 | 197 | 0.0 | 2.0 | 0.00 | 0.00 | 0.00 | 93 | 975.1 |
| 20260505061142 | 49 | 195 | 0.0 | 2.0 | 0.00 | 0.00 | 0.00 | 92 | 975.0 |
| 20260505060142 | 49 | 297 | 0.0 | 0.0 | 0.00 | 0.00 | 0.00 | 92 | 975.1 |
| 20260505055643 | 49 | 297 | 0.0 | 0.0 | 0.00 | 0.00 | 0.00 | 92 | 975.0 |
| 20260505054643 | 49 | 297 | 0.0 | 1.0 | 0.00 | 0.00 | 0.00 | 92 | 975.1 |
| 20260505054141 | 49 | 279 | 0.0 | 1.0 | 0.00 | 0.00 | 0.00 | 91 | 975.0 |
| 20260505053643 | 49 | 279 | 0.0 | 1.0 | 0.00 | 0.00 | 0.00 | 91 | 975.1 |
| 20260505053141 | 49 | 280 | 0.0 | 0.0 | 0.00 | 0.00 | 0.00 | 91 | 975.1 |
| 20260505052141 | 50 | 280 | 0.0 | 0.0 | 0.00 | 0.00 | 0.00 | 91 | 975.1 |
| 20260505050642 | 50 | 280 | 0.0 | 0.0 | 0.00 | 0.00 | 0.00 | 90 | 975.2 |
| 20260505050135 | 50 | 280 | 0.0 | 0.0 | 0.00 | 0.00 | 0.00 | 90 | 975.2 |
| 20260505041542 | 52 | 280 | 0.0 | 1.0 | 0.00 | 0.00 | 0.00 | 88 | 975.0 |
| 20260505041037 | 52 | 280 | 0.0 | 0.0 | 0.00 | 0.00 | 0.00 | 87 | 975.0 |
| 20260505040530 | 52 | 280 | 0.0 | 0.0 | 0.00 | 0.00 | 0.00 | 87 | 975.0 |
| 20260505040024 | 52 | 280 | 0.0 | 0.0 | 0.00 | 0.00 | 0.00 | 86 | 975.0 |
| 20260505035518 | 52 | 280 | 0.0 | 0.0 | 0.00 | 0.00 | 0.00 | 85 | 975.0 |
| 20260505035012 | 53 | 280 | 0.0 | 0.0 | 0.00 | 0.00 | 0.00 | 86 | 975.0 |
| 20260505034000 | 53 | 280 | 0.0 | 0.0 | 0.00 | 0.00 | 0.00 | 86 | 975.0 |
| 20260505033454 | 53 | 280 | 0.0 | 0.0 | 0.00 | 0.00 | 0.00 | 85 | 975.0 |
| 20260505032948 | 53 | 279 | 0.0 | 1.0 | 0.00 | 0.00 | 0.00 | 84 | 975.2 |
| 20260505032442 | 53 | 279 | 0.0 | 1.0 | 0.00 | 0.00 | 0.00 | 83 | 975.1 |
| 20260505031936 | 53 | 279 | 0.0 | 0.0 | 0.00 | 0.00 | 0.00 | 83 | 975.0 |
| 20260505031430 | 54 | 279 | 0.0 | 0.0 | 0.00 | 0.00 | 0.00 | 82 | 975.1 |
| 20260505030924 | 54 | 279 | 0.0 | 0.0 | 0.00 | 0.00 | 0.00 | 82 | 975.2 |
| 20260505030418 | 54 | 279 | 0.0 | 0.0 | 0.00 | 0.00 | 0.00 | 81 | 975.1 |
| 20260505025912 | 54 | 279 | 0.0 | 0.0 | 0.00 | 0.00 | 0.00 | 80 | 975.1 |
| 20260505025406 | 55 | 279 | 0.0 | 0.0 | 0.00 | 0.00 | 0.00 | 80 | 975.2 |
| 20260505024359 | 55 | 279 | 0.0 | 0.0 | 0.00 | 0.00 | 0.00 | 78 | 975.1 |
| 20260505023856 | 56 | 279 | 0.0 | 1.0 | 0.00 | 0.00 | 0.00 | 77 | 975.1 |
| 20260505023355 | 56 | 279 | 0.0 | 1.0 | 0.00 | 0.00 | 0.00 | 77 | 975.1 |
| 20260505022351 | 56 | 280 | 0.0 | 0.0 | 0.00 | 0.00 | 0.00 | 75 | 975.0 |
| 20260505021350 | 57 | 280 | 0.0 | 0.0 | 0.00 | 0.00 | 0.00 | 76 | 975.0 |
| 20260505020851 | 57 | 280 | 0.0 | 0.0 | 0.00 | 0.00 | 0.00 | 73 | 974.9 |
| 20260505020350 | 57 | 280 | 0.0 | 0.0 | 0.00 | 0.00 | 0.00 | 73 | 974.9 |
| 20260505015347 | 58 | 280 | 0.0 | 0.0 | 0.00 | 0.00 | 0.00 | 71 | 974.8 |
| 20260505014844 | 59 | 280 | 0.0 | 0.0 | 0.00 | 0.00 | 0.00 | 70 | 974.8 |
| 20260505014344 | 59 | 280 | 0.0 | 0.0 | 0.00 | 0.00 | 0.00 | 69 | 974.7 |
| 20260505013339 | 60 | 280 | 0.0 | 0.0 | 0.00 | 0.00 | 0.00 | 67 | 974.8 |
| 20260505011834 | 62 | 280 | 0.0 | 0.0 | 0.00 | 0.00 | 0.00 | 64 | 974.7 |
| 20260505011333 | 62 | 280 | 0.0 | 0.0 | 0.00 | 0.00 | 0.00 | 63 | 974.6 |
| 20260505010331 | 63 | 280 | 0.0 | 1.0 | 0.00 | 0.00 | 0.00 | 61 | 974.6 |
| 20260505005825 | 64 | 280 | 0.0 | 2.0 | 0.00 | 0.00 | 0.00 | 61 | 974.6 |
| 20260505005319 | 65 | 280 | 0.0 | 2.0 | 0.00 | 0.00 | 0.00 | 60 | 974.5 |
| 20260505004307 | 67 | 359 | 0.0 | 1.0 | 0.00 | 0.00 | 0.00 | 56 | 974.5 |
| 20260505003802 | 68 | 274 | 0.0 | 3.0 | 0.00 | 0.00 | 0.00 | 53 | 974.4 |
| 20260505003302 | 69 | 273 | 0.0 | 3.0 | 0.00 | 0.00 | 0.00 | 51 | 974.4 |
| 20260505002801 | 69 | 162 | 1.0 | 4.0 | 0.00 | 0.00 | 0.00 | 48 | 974.3 |
| 20260505002303 | 70 | 166 | 1.0 | 4.0 | 0.00 | 0.00 | 0.00 | 47 | 974.3 |
| 20260505001802 | 71 | 133 | 2.0 | 5.0 | 0.00 | 0.00 | 0.00 | 46 | 974.2 |
| 20260505001302 | 72 | 186 | 3.0 | 6.0 | 0.00 | 0.00 | 0.00 | 45 | 974.2 |
| 20260505000759 | 73 | 138 | 3.0 | 9.0 | 0.00 | 0.00 | 0.00 | 43 | 974.2 |
| 20260505000259 | 73 | 216 | 3.0 | 9.0 | 0.00 | 0.00 | 0.00 | 42 | 974.2 |
| 20260504235800 | 73 | 193 | 5.0 | 13.0 | 0.00 | 0.00 | 0.00 | 42 | 974.2 |
| 20260504235259 | 74 | 185 | 5.0 | 13.0 | 0.00 | 0.00 | 0.00 | 42 | 974.3 |
| 20260504234802 | 74 | 145 | 4.0 | 8.0 | 0.00 | 0.00 | 0.00 | 41 | 974.3 |
| 20260504234301 | 74 | 119 | 4.0 | 11.0 | 0.00 | 0.00 | 0.00 | 41 | 974.3 |
| 20260504233801 | 74 | 204 | 4.0 | 11.0 | 0.00 | 0.00 | 0.00 | 41 | 974.2 |
| 20260504233259 | 74 | 185 | 5.0 | 12.0 | 0.00 | 0.00 | 0.00 | 41 | 974.2 |
| 20260504232757 | 74 | 197 | 5.0 | 12.0 | 0.00 | 0.00 | 0.00 | 42 | 974.3 |
| 20260504232259 | 74 | 192 | 6.0 | 12.0 | 0.00 | 0.00 | 0.00 | 42 | 974.2 |
| 20260504231759 | 74 | 207 | 6.0 | 12.0 | 0.00 | 0.00 | 0.00 | 42 | 974.2 |
| 20260504230758 | 75 | 215 | 6.0 | 11.0 | 0.00 | 0.00 | 0.00 | 42 | 974.2 |
| 20260504230258 | 75 | 235 | 6.0 | 14.0 | 0.00 | 0.00 | 0.00 | 42 | 974.2 |
| 20260504225258 | 75 | 195 | 6.0 | 11.0 | 0.00 | 0.00 | 0.00 | 42 | 974.1 |
| 20260504224757 | 75 | 232 | 7.0 | 15.0 | 0.00 | 0.00 | 0.00 | 41 | 974.3 |
| 20260504223757 | 75 | 160 | 8.0 | 14.0 | 0.00 | 0.00 | 0.00 | 41 | 974.4 |
| 20260504223258 | 76 | 147 | 6.0 | 14.0 | 0.00 | 0.00 | 0.00 | 39 | 974.4 |
| 20260504222758 | 76 | 219 | 5.0 | 11.0 | 0.00 | 0.00 | 0.00 | 41 | 974.4 |
| 20260504222258 | 76 | 190 | 4.0 | 12.0 | 0.00 | 0.00 | 0.00 | 43 | 974.5 |
| 20260504221757 | 76 | 149 | 5.0 | 12.0 | 0.00 | 0.00 | 0.00 | 42 | 974.4 |
| 20260504220757 | 76 | 207 | 7.0 | 18.0 | 0.00 | 0.00 | 0.00 | 44 | 974.5 |
| 20260504220255 | 76 | 185 | 7.0 | 14.0 | 0.00 | 0.00 | 0.00 | 43 | 974.5 |
| 20260504215756 | 76 | 234 | 6.0 | 14.0 | 0.00 | 0.00 | 0.00 | 42 | 974.6 |
| 20260504215255 | 76 | 190 | 5.0 | 11.0 | 0.00 | 0.00 | 0.00 | 43 | 974.5 |
| 20260504214752 | 76 | 208 | 5.0 | 12.0 | 0.00 | 0.00 | 0.00 | 44 | 974.5 |
| 20260504214252 | 76 | 234 | 6.0 | 12.0 | 0.00 | 0.00 | 0.00 | 45 | 974.5 |
| 20260504213753 | 75 | 170 | 5.0 | 11.0 | 0.00 | 0.00 | 0.00 | 46 | 974.4 |
| 20260504213249 | 75 | 171 | 5.0 | 13.0 | 0.00 | 0.00 | 0.00 | 46 | 974.5 |
| 20260504212748 | 76 | 232 | 6.0 | 13.0 | 0.00 | 0.00 | 0.00 | 45 | 974.5 |
| 20260504212247 | 76 | 161 | 5.0 | 16.0 | 0.00 | 0.00 | 0.00 | 45 | 974.5 |
| 20260504211747 | 76 | 205 | 5.0 | 16.0 | 0.00 | 0.00 | 0.00 | 45 | 974.5 |
| 20260504211248 | 76 | 273 | 4.0 | 10.0 | 0.00 | 0.00 | 0.00 | 45 | 974.5 |
| 20260504210744 | 77 | 214 | 5.0 | 14.0 | 0.00 | 0.00 | 0.00 | 46 | 974.5 |
| 20260504205744 | 76 | 205 | 6.0 | 13.0 | 0.00 | 0.00 | 0.00 | 45 | 974.6 |
| 20260504205237 | 77 | 210 | 6.0 | 13.0 | 0.00 | 0.00 | 0.00 | 45 | 974.6 |
| 20260504204732 | 76 | 214 | 7.0 | 13.0 | 0.00 | 0.00 | 0.00 | 45 | 974.6 |
| 20260504204226 | 76 | 171 | 7.0 | 13.0 | 0.00 | 0.00 | 0.00 | 45 | 974.6 |
| 20260504203720 | 77 | 155 | 6.0 | 13.0 | 0.00 | 0.00 | 0.00 | 42 | 974.7 |
| 20260504203214 | 78 | 266 | 5.0 | 12.0 | 0.00 | 0.00 | 0.00 | 46 | 974.8 |
| 20260504202708 | 78 | 216 | 3.0 | 11.0 | 0.00 | 0.00 | 0.00 | 46 | 974.8 |
| 20260504202202 | 78 | 184 | 3.0 | 9.0 | 0.00 | 0.00 | 0.00 | 46 | 974.7 |
| 20260504201656 | 77 | 275 | 3.0 | 9.0 | 0.00 | 0.00 | 0.00 | 46 | 974.8 |
| 20260504200643 | 76 | 245 | 5.0 | 13.0 | 0.00 | 0.00 | 0.00 | 43 | 975.0 |
| 20260504200137 | 76 | 248 | 5.0 | 14.0 | 0.00 | 0.00 | 0.00 | 43 | 975.1 |
| 20260504195633 | 76 | 195 | 5.0 | 14.0 | 0.00 | 0.00 | 0.00 | 45 | 975.2 |
| 20260504195126 | 77 | 204 | 4.0 | 10.0 | 0.00 | 0.00 | 0.00 | 43 | 975.3 |
| 20260504194620 | 77 | 231 | 4.0 | 9.0 | 0.00 | 0.00 | 0.00 | 45 | 975.3 |
| 20260504194114 | 76 | 150 | 5.0 | 11.0 | 0.00 | 0.00 | 0.00 | 47 | 975.3 |
| 20260504193607 | 76 | 259 | 4.0 | 11.0 | 0.00 | 0.00 | 0.00 | 46 | 975.5 |
| 20260504193102 | 76 | 155 | 4.0 | 10.0 | 0.00 | 0.00 | 0.00 | 46 | 975.4 |
| 20260504192557 | 76 | 284 | 4.0 | 10.0 | 0.00 | 0.00 | 0.00 | 48 | 975.4 |
| 20260504192050 | 76 | 305 | 3.0 | 9.0 | 0.00 | 0.00 | 0.00 | 45 | 975.5 |
| 20260504191544 | 76 | 270 | 3.0 | 10.0 | 0.00 | 0.00 | 0.00 | 52 | 975.7 |
| 20260504191037 | 75 | 166 | 4.0 | 10.0 | 0.00 | 0.00 | 0.00 | 46 | 975.8 |
| 20260504190532 | 76 | 282 | 4.0 | 12.0 | 0.00 | 0.00 | 0.00 | 45 | 975.9 |
| 20260504184004 | 74 | 247 | 4.0 | 10.0 | 0.00 | 0.00 | 0.00 | 47 | 976.2 |
| 20260504183455 | 75 | 261 | 3.0 | 8.0 | 0.00 | 0.00 | 0.00 | 52 | 976.3 |
| 20260504182950 | 75 | 297 | 4.0 | 12.0 | 0.00 | 0.00 | 0.00 | 48 | 976.3 |
| 20260504181433 | 74 | 268 | 5.0 | 15.0 | 0.00 | 0.00 | 0.00 | 53 | 976.5 |
| 20260504180420 | 74 | 326 | 4.0 | 12.0 | 0.00 | 0.00 | 0.00 | 51 | 976.6 |
| 20260504175913 | 75 | 309 | 4.0 | 12.0 | 0.00 | 0.00 | 0.00 | 49 | 976.6 |
| 20260504175406 | 74 | 269 | 5.0 | 16.0 | 0.00 | 0.00 | 0.00 | 51 | 976.7 |
| 20260504174900 | 74 | 279 | 5.0 | 16.0 | 0.00 | 0.00 | 0.00 | 50 | 976.8 |
| 20260504173848 | 74 | 311 | 4.0 | 12.0 | 0.00 | 0.00 | 0.00 | 53 | 976.9 |
| 20260504172330 | 74 | 325 | 4.0 | 10.0 | 0.00 | 0.00 | 0.00 | 55 | 977.0 |
| 20260504171824 | 73 | 294 | 4.0 | 10.0 | 0.00 | 0.00 | 0.00 | 50 | 977.1 |
| 20260504170812 | 73 | 259 | 5.0 | 13.0 | 0.00 | 0.00 | 0.00 | 55 | 977.2 |
| 20260504170306 | 73 | 312 | 5.0 | 13.0 | 0.00 | 0.00 | 0.00 | 51 | 977.4 |
| 20260504160242 | 70 | 272 | 5.0 | 15.0 | 0.00 | 0.00 | 0.00 | 53 | 978.1 |
| 20260504150227 | 67 | 328 | 4.0 | 13.0 | 0.00 | 0.00 | 0.00 | 53 | 978.4 |
| 20260504141226 | 65 | 154 | 3.0 | 8.0 | 0.00 | 0.00 | 0.00 | 62 | 978.8 |
| 20260504140726 | 64 | 219 | 1.0 | 7.0 | 0.00 | 0.00 | 0.00 | 63 | 978.8 |
| 20260504140224 | 64 | 176 | 1.0 | 5.0 | 0.00 | 0.00 | 0.00 | 63 | 978.8 |